Погода в Новоельне

Беларусь     53°27′51″N   25°34′51″E
темп.,
°C
ветер,
м/с
пор.,
м/с
влажн.,
%
обл.,
%
осадки,
мм/ч
давл.,
гПа
погр.,
м
17 сентября, пт
пт1700:00+12юв6139396 3.1 1012369
03:00+12вюв4795100 3.1 1011235
06:00+12в4698100 0.3 1009204
09:00+11в4597100 0.7 1009183
12:00+11всв4696100 0.3 1009281
15:00+10всв5795100 0.3 1010360
18:00+9всв5995100 0.1 1010403
21:00+8всв61194100 0.2 1010462
18 сентября, сб
сб1800:00+8всв61294100 0.5 1010492
03:00+8св61295100 4.7 1009589
06:00+7св61296100 8.6 1008669
09:00+7св71495100 17.6 1008712
12:00+6св71494100 6.9 1008744
15:00+6св71495100 13.5 1008768
18:00+6св71495100 8.3 1007808
21:00+6св71494100 12.0 1007837
19 сентября, вс
вс1900:00+6ссв71395100 3.3 1007846
03:00+6ссв71395100 7.1 1006783
06:00+7св71397100 1.6 1005647
09:00+8всв5996100 1.8 1007701
12:00+8всв4894100 0.2 1009595
15:00+8св4893100 0.3 1010556
18:00+7св51097100 0.3 1011530
21:00+6ссв61196100 0.4 1012609
20 сентября, пн
пн2000:00+6св61196100 1.3 1011559
03:00+6ссв61196100 3.7 1011568
06:00+5ссв61195100 1.9 1011557
09:00+5ссв51096100 3.3 1012598
12:00+5ссв5995100 1.5 1013652
15:00+5ссв5995100 3.0 1013623
18:00+4ссв4797100 1.3 1014701
21:00+4с4798100 1.8 1015748
21 сентября, вт
вт2100:00+4с3697100 0.4 1015778
03:00+4ссз4698100 0.7 1015808
06:00+5ссз4695100 0.3 1015834
09:00+5ссз3596100 0.7 1015884
12:00+5ссз4595100 0.4 1016903
15:00+5ссз4695100 0.9 1017777
18:00+5сз3795100 0.4 1017751
21:00+5сз4793100 0.4 1018753